Regional Weather Roundup
Issued by NWS

Home | Current Version | Previous Version | Graphics & Text | Print | Product List | Glossary On
Versions: 1 2 3 4 5 6 7 8 9 10 11 12 13 14 15 16 17 18 19 20 21 22 23 24 25 26 27 28 29 30 31 32 33 34 35 36 37 38 39 40 41 42 43 44 45 46 47 48 49 50
000
ASUS45 KBOU 290607
RWRCO

WEATHER ROUNDUP FOR COLORADO
NATIONAL WEATHER SERVICE DENVER/BOULDER CO
1200 AM MDT FRI AUG 29 2014

NOTE: "FAIR" INDICATES FEW OR NO CLOUDS BELOW 12000 FEET WITH NO
SIGNIFICANT WEATHER AND/OR OBSTRUCTIONS TO VISIBILITY.

COZ001>005-013-030-031-290700-
...NORTHWEST COLORADO...

CITY           SKY/WX    TMP DP  RH WIND       PRES   REMARKS
CRAIG          CLEAR     52  48  86 CALM      30.23S
HAYDEN         CLEAR     54  46  76 E9        30.25S
MEEKER         CLEAR     53  47  79 E6        30.27R
MOUNT WERNER   NOT AVBL
STEAMBOAT SPGS CLEAR     49  47  92 CALM      30.28S
WALDEN         CLEAR     41  37  87 SE8       30.32S
$$

COZ006>008-011-290700-
...WEST CENTRAL VALLEYS...

CITY           SKY/WX    TMP DP  RH WIND       PRES   REMARKS
GRAND JUNCTION CLEAR     59  54  83 E8        30.15S
MONTROSE       CLEAR     59  47  64 SE12      30.25S
EAGLE          CLEAR     52  46  82 E3        30.30S
RIFLE          CLEAR     57  49  74 S5        30.21S
DELTA          CLEAR     61  52  71 NE6       30.21S
NUCLA          CLEAR     55  46  71 E9        30.27S
$$

COZ017>023-064>068-290700-
...SOUTHWEST COLORADO...

CITY           SKY/WX    TMP DP  RH WIND       PRES   REMARKS
DURANGO        CLEAR     55  37  50 CALM      30.23F
CORTEZ         CLEAR     53  47  79 NE5       30.23S
PAGOSA SPRINGS CLEAR     54  35  48 CALM      30.31S
TELLURIDE      NOT AVBL
WOLF CREEK PAS CLEAR     37  30  75 N17       30.55S
$$

COZ009-010-012-014-032>034-037-058>063-290700-
...CENTRAL COLORADO...

CITY           SKY/WX    TMP DP  RH WIND       PRES   REMARKS
ASPEN          PTCLDY    46  42  86 SW6       30.34F
BUENA VISTA    PTCLDY    51  40  66 NW7       30.33S
COPPER MTN     CLOUDY    41  37  87 W16       30.56S FOG
BERTHOUD PASS  FOG       34  34 100 N16G28    30.57R VSB<1/4 WCI  23
COTTONWOOD PAS PTCLDY    50  34  53 W12G17    30.43F
GUNNISON       PTCLDY    46  37  71 NW3       30.37S
KREMMLING      CLEAR     43  41  93 CALM      30.33S
LEADVILLE      PTCLDY    41  36  82 E5        30.44S
MONARCH PASS   CLEAR     39  32  75 NW10G17   30.66S
SALIDA         PTCLDY    50  40  69 W8        30.39S
SUNLIGHT       CLEAR     46  43  87 CALM      30.53S
WILKERSON PASS NOT AVBL
$$

COZ069>075-290700-
...SAN LUIS VALLEY/SANGRE DE CRISTO MOUNTAINS...

CITY           SKY/WX    TMP DP  RH WIND       PRES   REMARKS
ALAMOSA        CLEAR     48  42  80 W3        30.30S
LA VETA PASS   NOT AVBL
SAGUACHE       NOT AVBL
$$

COZ035-036-038>040-290700-
...NORTHERN COLORADO FRONT RANGE...

CITY           SKY/WX    TMP DP  RH WIND       PRES   REMARKS
DENVER INTL AP CLEAR     58  46  64 S12       30.12F
DMNS CITY PARK   N/A     55  48  77 S6        30.12F
AURORA         CLEAR     54  46  73 S8        30.14F
FRONT RANGE AP CLEAR     57  46  67 SW9       30.14S
ERIE MUNI ARPT CLEAR     53  50  89 CALM      30.11S
BOULDER MUN AP CLEAR     54  50  87 W3        30.11F
CENTENNIAL     PTCLDY    52  46  80 SE3       30.15F
BROOMFIELD     CLEAR     54  48  82 W3        30.14S
FORT COLLINS   CLEAR     54  48  82 CALM      30.12F
LONGMONT       CLEAR     55  50  84 W5        30.12F HAZE
$$

COZ041-046-047-076>085-087-088-290700-
...PIKES PEAK/PALMER DIVIDE AND SOUTHERN FOOTHILLS...

CITY           SKY/WX    TMP DP  RH WIND       PRES   REMARKS
COLO. SPRINGS  PTCLDY    51  44  77 N9        30.19F
A. F. ACADEMY  CLEAR     46  44  93 N9        30.21F
ELLICOTT       CLEAR     48  44  86 NE3       30.17F
FALCON         CLEAR     48  42  80 W6        30.23F
FORT CARSON    CLEAR     50  46  88 NW5       30.16F
LIMON          CLEAR     50  48  93 CALM      30.13F
MONUMENT HILL  CLEAR     45  41  87 SW8       30.21F
TRINIDAD       CLEAR     54  48  80 SW10      30.19F
$$

COZ042>045-048>051-090-091-290700-
...NORTHEAST COLORADO...

CITY           SKY/WX    TMP DP  RH WIND       PRES   REMARKS
GREELEY ARPT   CLEAR     52  43  71 NW3       30.10S
AKRON          PTCLDY    56  52  86 W15       30.06F
BURLINGTON     PTCLDY    58  54  86 W8        30.03R
WRAY             N/A    N/A N/A N/A W6        29.99F
STERLING       PTCLDY    61  55  82 W8        30.03S
HOLYOKE        PTCLDY    63  55  77 NW9       29.99F
FORT MORGAN    PTCLDY    54  51  89 W7        30.07F
$$

COZ086-089-092>099-290700-
...SOUTHEAST COLORADO...

CITY           SKY/WX    TMP DP  RH WIND       PRES   REMARKS
PUEBLO         CLEAR     56  52  86 W6        30.12F
LA JUNTA       MOCLDY    59  55  87 W7        30.09S
LAMAR          CLEAR     60  54  80 W6        30.03S
SPRINGFIELD      N/A     60  52  74 NW10      30.08S
$$


USA.gov is the U.S. government's official web portal to all federal, state and local government web resources and services.